Regional Weather Roundup
Issued by NWS Upton, NY

Current Version | Previous Version | Text Only | Print | Product List | Glossary Off
Versions: 1 2 3 4 5 6 7 8 9 10 11 12 13 14 15 16 17 18 19 20 21 22 23 24 25 26 27 28 29 30 31 32 33
000 ASUS41 KOKX 221300 RWROKX Regional Weather Roundup National Weather Service New York NY 800 AM EST THU FEB 22 2018 Note: "FAIR" indicates few or no clouds below 12,000 feet with no significant weather and/or obstructions to visibility. NYZ071-072-176-178-NJZ106-104-221400- New York City Metro Area CITY SKY/WX TMP DP RH WIND PRES REMARKS Central Park LGT RAIN 43 37 79 NE9G18 30.60R Bronx Bot Gard N/A 43 36 75 E2 30.60R Bronx Lehman C N/A 43 36 75 N6 N/A LaGuardia Arpt LGT RAIN 47 37 68 N9G21 30.58R Queens College N/A 43 37 81 N9 N/A Kennedy Intl CLOUDY 46 37 71 N17 30.57R Breezy Point N/A 45 N/A N/A N12G17 N/A Brooklyn Coll N/A 46 36 66 N15 N/A Staten Island N/A 45 37 76 N14 N/A Newark/Liberty CLOUDY 44 38 79 N17 30.55R Teterboro HVY RAIN 44 36 73 N13G25 30.56R $$ NYZ177-179-078>081-221400- Long Island New York CITY SKY/WX TMP DP RH WIND PRES REMARKS Jones Beach N/A 45 N/A N/A NE16 N/A Wantagh N/A 46 37 71 N10 N/A Hempstead N/A 45 37 76 N3 30.57S Matinecock Pt N/A 41 N/A N/A NE15 N/A Farmingdale CLOUDY 45 37 73 NE14G22 30.54S MacArthur/ISP NOT AVBL Shirley NOT AVBL Mt Sinai Harb N/A 41 N/A N/A MISG N/A Westhampton CLOUDY 44 38 79 NE13 30.58R East Hampton CLOUDY 43 35 72 NE7 30.56R Southold N/A 43 32 65 NE13 N/A Montauk NOT AVBL $$ NYZ052-065-067-221400- Hudson Valley CITY SKY/WX TMP DP RH WIND PRES REMARKS White Plains NOT AVBL Larchmont Harb N/A 43 N/A N/A N18 N/A Croton On Huds N/A 43 N/A N/A N5G10 N/A Somers N/A 41 32 70 N5 N/A Brewster N/A 39 32 75 N8 N/A WCI 34 Newburgh LGT RAIN 39 32 75 NE12 30.60S WCI 32 Montgomery LGT RAIN 40 31 70 NE8 30.58R WCI 34 Otisville N/A 37 32 81 NE3 N/A Warwick N/A 41 30 65 E3 N/A Suffern N/A 41 32 70 NE3 N/A Poughkeepsie CLOUDY 41 29 62 N9 30.60S Albany CLOUDY 35 20 54 N7 30.66R WCI 29 $$ NJZ001-105-106-008-010-013-015-019>022-104-221400- New Jersey CITY SKY/WX TMP DP RH WIND PRES REMARKS Newark/Liberty CLOUDY 44 38 79 N17 30.55R Teterboro HVY RAIN 44 36 73 N13G25 30.56R Caldwell LGT RAIN 42 37 82 NE6 30.58R Somerville LGT RAIN 43 37 79 N7 30.55R Linden CLOUDY 45 36 71 NE13G20 30.55R Perth Amboy N/A 45 N/A N/A NE9G17 N/A Sussex LGT RAIN 42 30 62 NE9 30.59R Andover N/A 40 34 79 N7 30.59R Trenton CLOUDY 47 37 68 N12 30.53R Millville CLOUDY 55 43 63 NE9 30.47S Atlantic City CLOUDY 53 40 61 E17G25 30.49R Wrightstown LGT RAIN 49 39 67 NE10 30.49 Toms River CLOUDY 50 35 56 NE15G22 30.54R Belmar CLOUDY 47 35 63 N12 30.54R $$ PAZ047>061-062-071-221400- Eastern Pennsylvania CITY SKY/WX TMP DP RH WIND PRES REMARKS Philadelphia CLOUDY 52 35 52 NE15G24 30.52R Allentown CLOUDY 43 37 79 N8 30.56S Scranton LGT RAIN 37 35 92 W6 30.60R FOG WCI 32 $$ CTZ002-004>006-009-010-012-RIZ004-006-007-MAZ004-011-015-221400- Southern New England In CT CITY SKY/WX TMP DP RH WIND PRES REMARKS Bradley Intl CLOUDY 43 24 47 N10 30.61R Hartford CLOUDY 45 25 45 N7 30.62R Danbury CLOUDY 43 34 70 N5 30.61R Wtrbury/Oxford CLOUDY 42 25 50 NE14 30.57R Norwalk Harbor N/A 41 N/A N/A N12 N/A Bridgeport CLOUDY 45 39 79 N9 30.57R Meriden CLOUDY 44 26 49 N8 30.60R New Haven CLOUDY 45 34 65 N13 30.57R Chester CLOUDY 43 34 70 N6 30.58R Groton NOT AVBL Willimantic CLOUDY 46 25 43 NE9 30.59R In RI CITY SKY/WX TMP DP RH WIND PRES REMARKS Providence CLOUDY 45 29 53 NE13 30.61R Block Island LGT RAIN 41 35 79 NE14 30.59R Westerly CLOUDY 43 38 82 NE6 30.59R In MA CITY SKY/WX TMP DP RH WIND PRES REMARKS Boston CLOUDY 42 23 46 N7 30.63R Worcester CLOUDY 38 19 46 NE9 30.59R WCI 31 Westfield LGT RAIN 41 25 53 N8 30.62R Provincetown CLOUDY 41 30 65 NE12 30.63R Nantucket CLOUDY 43 38 82 N16 30.61R $$ ANZ330-335-338-340-345-350-353-355-221400- Coastal Marine Observations STATION/POSITION TIME SKY/WX TEMP WIND PRES VSBY WAVE AIR SEA DIR/SP/G HT/PER (UTC) (F) (DEG/KT/KT) (MB) (MI) (FT/S) NY Harb Entrance 1240 44 42 40/ 12/ 16 1033.5 20 S Fire Island 1150 45 43 30/ 12/ 16 1033.5 3/15 15 E Barnegat Li 1230 42 N/A 3/15 Hudson Canyon 1150 49 47 50/ 19/ 23 1031.8 4/ 5 Kings Point 1224 42 38 70/ 8/ 12 1035.3 Execution Rocks NOT AVBL Western LI Sound NOT AVBL Central LI Sound 1245 40 50/ 4/ 6 N/A 1 Robbins Reef 1224 45 350/ 16/ 18 1034.3 $$ >>>>>>>>>>>>>>>>>>>>>>>>>>>> KEY <<<<<<<<<<<<<<<<<<<<<<<<<<< > < > SKY/WX - Sky Condition/Present Weather < > TMP - Temperature in Fahrenheit < > DP - Dew Point in Fahrenheit < > RH - Relative Humidity in Percent < > WIND - Direction (from) and Speed in MPH < > PRES - Mean Sea Level Pressure (inches of Hg) < > WCI - Wind Chill Index < > VSB - Visibility in Miles < > HX - Heat Index < > TC - Temperature in Celsius < > VRB - Varibale Wind Direction < > < >>>>>>>>>>>>>>>>>>>>>>>>>>>> KEY <<<<<<<<<<<<<<<<<<<<<<<<<<<

USA.gov is the U.S. government's official web portal to all federal, state and local government web resources and services.